STARLINK-33751, 63512

Orbit data source: Space-Track

STARLINK-33751, 63512 is a payload satellite owned by SpaceX/Seattle (US) in LEO that was launched on Mon, 07 Apr 2025 UTC via an FALCON 9 launch vehicle from the Air Force Western Test Range (AFWTR). Payload-class satellites include a variety of spacecraft equipped with specific instruments for various scientific and technological missions. These include communications satellites like Starlink; space stations such as the ISS; scientific satellites like the Hubble; Earth observation satellites from companies like Planet Labs, Umbra, and HawkEye 360; GPS; miniature CubeSats for education and research; and military/defense satellites.

Loading next visibility...
Identifier
63512, 2025-071V
Orbit
LEO
Country
Flag of USUS
Related business
Manufacturer
SpaceX/Seattle
Mission
Operational Commercial Communications
Bus & Motor
STARLINK V2MO, Unknown motor
Mass
575 kg wet, ~530 kg dry
Launch date (UTC)
2025-04-07 (1 year ago)
Launch vehicle
FALCON 9
Launch site
Air Force Western Test Range (AFWTR)
Object type
Payload
Rocket body
Debris
Shape & HBR
Box + 2 Pan, 17.7 m
Radar Cross Section
36.964 m², Large (>1 m²)

Expand to show TLE details & history
Last TLE update: 6 days ago

TLE from 6 days ago
0 STARLINK-33751
1 63512U 25071V   26155.11480460  .00028466  00000-0  92477-3 0  9993
2 63512  53.1592  98.3316 0001255 110.7038 249.4098 15.31727448 65983
Epoch: 2026-06-04T02:45Z
TLE epoch observation values (Epoch: 2026-06-04T02:45:19.117Z)
Latitude
-0.00002°
Longitude
164.43822°
Altitude
471.861 km
Speed
7.631 km/s
True Right ascension
06h 33m 19s
True Declination
0° 00' 00"
Sunlit
Object was in daylight at epoch
Visualization orbit readout
Latitude
Unknown
Longitude
Unknown
Altitude
Unknown
Speed
Unknown
Apparent Right ascension
Unknown
Apparent Declination
Unknown
Sunlit
N/A
Visualization observer readout
Local Sidereal Time
12:55:55
Azimuth
Unknown
Elevation
Unknown
Doppler factor
Unknown
Orbital elements
Apogee altitude
471.774 km
Perigee altitude
470.055 km
Semi-major axis
6,849.052 km
Eccentricity
0.00013
Inclination
53.1592°
RAAN
98.3316°
Arg. of periapsis
110.7038°
True anomaly
249.39634°
Mean anomaly
249.4098°
Eccentric anomaly
249.40307°
Mean motion
3.82911 °/min
Orbital period
94.02 mins
BSTAR
0.00092477
Loading maneuver chart data...
Computing Atmospheric mass density...
Loading historical data...
Loading historical data...
Loading historical data...
Loading historical data...
Loading historical data...
Loading historical data...
Loading historical data...

Documentation

Showing up to 5 results
|